FW8343 Weather Reports


time (UTC)temp
C
wind
direction
speed
KPH
gust
KPH
rain 1hr
cm
rain 24hr
cm
rain mn
cm
humidity
%
barometer
mb
20260904071542 17 0 0.0 0.0 0.00 0.00 0.00 97 1012.7
20260904071020 17 0 0.0 0.0 0.00 0.00 0.00 97 1012.8
20260904070520 17 0 0.0 3.2 0.00 0.00 0.00 97 1012.9
20260904070036 17 0 0.0 3.2 0.00 0.00 0.00 97 1012.9
20260904065521 17 190 0.0 3.2 0.00 0.00 0.00 96 1013.2
20260904065020 17 0 0.0 0.0 0.00 0.00 0.00 96 1013.5
20260904064538 17 0 0.0 0.0 0.00 0.00 0.00 96 1013.4
20260904064018 18 0 0.0 3.2 0.00 0.00 0.00 96 1013.5
20260904063518 18 0 0.0 3.2 0.00 0.00 0.00 97 1013.4
20260904063038 18 0 0.0 4.8 0.00 0.00 0.00 97 1013.5
20260904062519 18 0 0.0 4.8 0.00 0.00 0.00 97 1013.5
20260904062019 18 0 0.0 3.2 0.00 0.00 0.00 96 1013.5
20260904061540 18 0 0.0 3.2 0.00 0.00 0.00 96 1013.7
20260904061021 18 0 0.0 3.2 0.00 0.00 0.00 95 1013.9
20260904060521 18 0 0.0 1.6 0.00 0.00 0.00 95 1014.1
20260904060038 18 0 0.0 3.2 0.00 0.00 0.00 95 1014.2
20260904055517 18 0 0.0 4.8 0.00 0.00 0.00 95 1014.3
20260904055015 18 0 0.0 4.8 0.00 0.00 0.00 95 1014.2
20260904054540 18 190 0.0 3.2 0.00 0.00 0.00 95 1014.0
20260904054023 18 0 0.0 1.6 0.00 0.00 0.00 95 1014.0
20260904053521 18 0 0.0 4.8 0.00 0.00 0.00 94 1014.1
20260904053040 18 0 0.0 4.8 0.00 0.00 0.00 95 1014.3
20260904052517 18 0 0.0 3.2 0.00 0.00 0.00 95 1014.2
20260904052016 18 0 0.0 3.2 0.00 0.00 0.00 94 1014.4
20260904051535 18 0 0.0 1.6 0.00 0.00 0.00 94 1014.4
20260904051019 18 0 0.0 3.2 0.00 0.00 0.00 94 1014.3
20260904050524 18 0 0.0 3.2 0.00 0.00 0.00 94 1014.2
20260904050037 18 0 0.0 3.2 0.00 0.00 0.00 94 1014.2
20260904045524 18 0 0.0 3.2 0.00 0.00 0.00 94 1014.2
20260904045019 18 0 0.0 12.9 0.00 0.00 0.00 94 1014.2
20260904044536 18 0 1.6 12.9 0.00 0.00 0.00 94 1014.3
20260904044016 18 350 3.2 12.9 0.00 0.00 0.00 93 1014.4
20260904043520 18 0 0.0 6.4 0.00 0.00 0.00 94 1014.5
20260904043037 18 290 1.6 6.4 0.00 0.00 0.00 94 1014.5
20260904042521 18 0 0.0 0.0 0.00 0.00 0.00 95 1014.3
20260904042022 18 0 0.0 3.2 0.00 0.00 0.00 94 1014.1
20260904041537 18 0 0.0 3.2 0.00 0.00 0.00 94 1014.0
20260904041016 18 298 0.0 6.4 0.00 0.00 0.00 94 1013.8
20260904040517 18 0 0.0 6.4 0.00 0.00 0.00 94 1013.7
20260904040039 18 283 1.6 6.4 0.00 0.00 0.00 94 1013.8
20260904035522 18 334 1.6 6.4 0.00 0.00 0.00 94 1013.6
20260904035021 18 0 0.0 4.8 0.00 0.00 0.00 95 1013.7
20260904034536 18 0 0.0 0.0 0.00 0.00 0.00 94 1013.5
20260904034019 18 0 0.0 0.0 0.00 0.00 0.00 94 1013.4
20260904033520 18 0 0.0 0.0 0.00 0.00 0.00 94 1013.5
20260904033038 18 0 0.0 0.0 0.00 0.00 0.00 94 1013.7
20260904032518 18 0 0.0 0.0 0.00 0.00 0.00 93 1013.7
20260904032018 18 0 0.0 0.0 0.00 0.00 0.00 93 1013.8
20260904031536 18 0 0.0 0.0 0.00 0.00 0.00 93 1014.0
20260904031020 18 0 0.0 1.6 0.00 0.00 0.00 93 1014.0
20260904030522 18 0 0.0 1.6 0.00 0.00 0.00 93 1014.0
20260904030034 18 0 0.0 1.6 0.00 0.00 0.00 93 1013.9
20260904025522 18 0 0.0 0.0 0.00 0.00 0.00 94 1013.9
20260904025021 18 0 0.0 0.0 0.00 0.00 0.00 93 1013.7
20260904024538 18 0 0.0 3.2 0.00 0.00 0.00 93 1013.6
20260904024021 18 0 0.0 3.2 0.00 0.00 0.00 93 1013.6
20260904023520 18 0 0.0 3.2 0.00 0.00 0.00 92 1013.6
20260904023036 18 327 0.0 3.2 0.00 0.00 0.00 91 1013.5
20260904022518 19 0 0.0 0.0 0.00 0.00 0.00 92 1013.3
20260904022021 19 0 0.0 0.0 0.00 0.00 0.00 91 1013.3
20260904021548 20 0 0.0 0.0 0.00 0.00 0.00 89 1013.2
20260904021022 20 0 0.0 0.0 0.00 0.00 0.00 89 1013.2
20260904020521 20 0 0.0 3.2 0.00 0.00 0.00 88 1013.2
20260904020036 20 0 0.0 3.2 0.00 0.00 0.00 88 1013.1
20260904015519 20 174 0.0 3.2 0.00 0.00 0.00 87 1013.4
20260904015022 20 0 0.0 0.0 0.00 0.00 0.00 87 1013.5
20260904014539 20 0 0.0 4.8 0.00 0.00 0.00 87 1013.6
20260904014020 20 0 0.0 4.8 0.00 0.00 0.00 87 1013.5
20260904013520 20 0 0.0 4.8 0.00 0.00 0.00 86 1013.6
20260904013033 20 0 0.0 3.2 0.00 0.00 0.00 84 1013.8
20260904012521 20 0 0.0 0.0 0.00 0.00 0.00 84 1013.7
20260904012022 20 0 0.0 0.0 0.00 0.00 0.00 83 1013.5
20260904011548 20 0 0.0 0.0 0.00 0.00 0.00 82 1013.7
20260904011020 20 0 0.0 0.0 0.00 0.00 0.00 83 1013.6
20260904010521 20 0 0.0 0.0 0.00 0.00 0.00 82 1013.7
20260904010036 21 0 0.0 0.0 0.00 0.00 0.00 81 1013.7
20260904005523 21 0 0.0 0.0 0.00 0.00 0.00 81 1013.6
20260904005019 21 0 0.0 0.0 0.00 0.00 0.00 81 1013.4
20260904004537 21 0 0.0 0.0 0.00 0.00 0.00 80 1013.6
20260904004019 21 0 0.0 0.0 0.00 0.00 0.00 80 1013.6
20260904003520 21 0 0.0 0.0 0.00 0.00 0.00 80 1013.7
20260904003035 21 0 0.0 3.2 0.00 0.00 0.00 80 1013.3
20260904002517 21 0 0.0 3.2 0.00 0.00 0.00 80 1013.5
20260904002020 22 307 0.0 1.6 0.00 0.00 0.00 80 1013.3
20260904001535 22 0 0.0 0.0 0.00 0.00 0.00 80 1013.3
20260904001020 22 0 0.0 0.0 0.00 0.00 0.00 79 1013.5
20260904000523 22 0 0.0 0.0 0.00 0.00 0.00 79 1013.6
20260904000039 22 0 0.0 3.2 0.00 0.00 0.00 79 1013.3
20260903235523 22 0 0.0 3.2 0.00 0.00 0.00 77 1013.4
20260903235022 22 0 0.0 1.6 0.00 0.00 0.00 77 1013.4
20260903234537 22 0 0.0 1.6 0.00 0.00 0.00 77 1013.3
20260903234016 22 0 0.0 3.2 0.00 0.00 0.00 78 1013.6
20260903233517 22 0 0.0 3.2 0.00 0.00 0.00 78 1013.2
20260903233035 22 307 0.0 3.2 0.00 0.00 0.00 77 1012.9
20260903232519 22 0 0.0 3.2 0.00 0.00 0.00 76 1013.2
20260903232018 23 0 0.0 1.6 0.00 0.00 0.00 75 1013.2
20260903231535 23 0 0.0 4.8 0.00 0.00 0.00 74 1013.1
20260903231016 23 0 0.0 4.8 0.00 0.00 0.00 73 1013.0
20260903230521 23 0 0.0 4.8 0.00 0.00 0.00 73 1012.9
20260903230038 24 0 0.0 3.2 0.00 0.00 0.00 73 1012.9
20260903225524 24 0 0.0 4.8 0.00 0.00 0.00 73 1012.7
20260903225021 24 0 0.0 4.8 0.00 0.00 0.00 72 1012.8
20260903224537 24 0 0.0 3.2 0.00 0.00 0.00 72 1012.9
20260903224019 25 0 0.0 3.2 0.00 0.00 0.00 71 1013.1
20260903223518 25 0 0.0 4.8 0.00 0.00 0.00 70 1013.0
20260903223042 25 0 0.0 6.4 0.00 0.00 0.00 69 1013.0
20260903222516 25 0 0.0 6.4 0.00 0.00 0.00 69 1012.9
20260903222018 26 320 0.0 6.4 0.00 0.00 0.00 69 1012.8
20260903221535 26 0 0.0 6.4 0.00 0.00 0.00 70 1012.8
20260903221021 26 0 1.6 6.4 0.00 0.00 0.00 68 1012.9
20260903220520 26 173 0.0 6.4 0.00 0.00 0.00 69 1012.7
20260903220052 26 0 0.0 4.8 0.00 0.00 0.00 70 1012.8
20260903215521 26 303 0.0 6.4 0.00 0.00 0.00 67 1012.8
20260903215020 27 146 0.0 6.4 0.00 0.00 0.00 69 1012.8
20260903214535 27 282 1.6 6.4 0.00 0.00 0.00 67 1012.8
20260903214017 27 0 0.0 4.8 0.00 0.00 0.00 69 1012.8
20260903213516 27 0 0.0 11.3 0.00 0.00 0.00 69 1012.8
20260903213036 27 0 0.0 11.3 0.00 0.00 0.00 69 1012.8
20260903212516 27 128 3.2 11.3 0.00 0.00 0.00 70 1012.7
20260903212019 27 185 0.0 6.4 0.00 0.00 0.00 73 1012.5
20260903211536 26 0 0.0 6.4 0.00 0.00 0.00 73 1012.7
20260903211020 26 185 3.2 6.4 0.00 0.00 0.00 76 1012.7
20260903210521 26 185 3.2 6.4 0.00 0.00 0.00 74 1012.6
20260903210038 26 0 0.0 3.2 0.00 0.00 0.00 74 1012.6
20260903205519 26 0 0.0 3.2 0.00 0.00 0.00 76 1012.8
20260903205020 26 0 0.0 0.0 0.00 0.00 0.00 76 1012.9
20260903204537 26 0 0.0 1.6 0.00 0.00 0.00 77 1012.8
20260903204019 26 0 0.0 4.8 0.00 0.00 0.00 75 1013.1
20260903203518 26 0 0.0 4.8 0.00 0.00 0.00 74 1013.1
20260903203036 26 0 1.6 6.4 0.00 0.00 0.00 74 1013.2
20260903202516 26 120 1.6 6.4 0.00 0.00 0.00 73 1013.3
20260903202022 26 120 3.2 6.4 0.00 0.00 0.00 73 1013.3
20260903201535 26 0 1.6 4.8 0.00 0.00 0.00 74 1013.3
20260903201021 26 171 0.0 3.2 0.00 0.00 0.00 74 1013.4
20260903200520 26 0 0.0 8.0 0.00 0.00 0.00 74 1013.4
20260903200033 26 171 3.2 8.0 0.00 0.00 0.00 74 1013.5
20260903195520 26 151 3.2 6.4 0.00 0.00 0.00 74 1013.5
20260903195018 26 0 1.6 4.8 0.00 0.00 0.00 73 1013.6
20260903194546 26 0 0.0 3.2 0.00 0.00 0.00 76 1013.5
20260903194027 26 147 0.0 4.8 0.00 0.00 0.00 75 1013.4
20260903193518 26 0 0.0 4.8 0.00 0.00 0.00 79 1013.4
20260903193038 26 147 0.0 4.8 0.00 0.00 0.00 78 1013.5
20260903192519 26 0 0.0 0.0 0.00 0.00 0.00 79 1013.6
20260903192021 25 0 0.0 3.2 0.00 0.00 0.00 82 1013.7
20260903191535 25 0 0.0 3.2 0.00 0.00 0.00 81 1013.6
20260903191021 25 147 0.0 6.4 0.00 0.00 0.00 82 1013.7
20260903190521 25 147 1.6 8.0 0.00 0.00 0.00 81 1013.6
20260903190034 25 161 1.6 11.3 0.00 0.00 0.00 82 1013.7
20260903185522 25 154 1.6 11.3 0.00 0.00 0.00 81 1013.8
20260903185019 25 178 3.2 8.0 0.00 0.00 0.00 80 1013.8
20260903184536 25 0 3.2 8.0 0.00 0.00 0.00 80 1013.8
20260903184018 25 0 0.0 3.2 0.00 0.00 0.00 81 1013.9
20260903183518 25 0 0.0 4.8 0.00 0.00 0.00 81 1013.9
20260903183034 25 153 0.0 8.0 0.00 0.00 0.00 79 1014.0
20260903182522 25 140 3.2 8.0 0.00 0.00 0.00 79 1014.0
20260903182020 24 146 3.2 8.0 0.00 0.00 0.00 81 1013.9
20260903181534 24 146 3.2 8.0 0.00 0.00 0.00 81 1013.9
20260903181020 24 150 3.2 9.7 0.00 0.00 0.00 81 1014.0
20260903180521 24 0 3.2 9.7 0.00 0.00 0.00 82 1014.0
20260903180036 24 0 0.0 3.2 0.00 0.00 0.00 82 1014.1
20260903175520 24 0 0.0 3.2 0.00 0.00 0.00 81 1014.3
20260903175020 24 0 0.0 6.4 0.00 0.00 0.00 83 1014.3
20260903174535 24 136 0.0 6.4 0.00 0.00 0.00 82 1014.5
20260903174017 24 0 0.0 1.6 0.00 0.00 0.00 82 1014.3
20260903173515 24 89 0.0 0.0 0.00 0.00 0.00 84 1014.3
20260903173034 24 0 0.0 0.0 0.00 0.00 0.00 82 1014.4
20260903172520 23 0 0.0 4.8 0.00 0.00 0.00 83 1014.4
20260903172022 23 0 0.0 4.8 0.00 0.00 0.00 83 1014.5
20260903171535 23 146 0.0 4.8 0.00 0.00 0.00 83 1014.5
20260903171019 23 0 1.6 4.8 0.00 0.00 0.00 82 1014.6
20260903170524 23 151 0.0 8.0 0.00 0.00 0.00 83 1014.6
20260903170036 23 0 0.0 8.0 0.00 0.00 0.00 84 1014.6
20260903165523 23 155 3.2 8.0 0.00 0.00 0.00 83 1014.7
20260903165019 23 0 0.0 8.0 0.00 0.00 0.00 84 1014.8
20260903164538 23 150 1.6 4.8 0.00 0.00 0.00 83 1014.7
20260903164018 23 0 0.0 8.0 0.00 0.00 0.00 84 1014.7
20260903163516 22 0 0.0 8.0 0.00 0.00 0.00 85 1014.8
20260903163034 22 0 0.0 4.8 0.00 0.00 0.00 87 1014.8
20260903162521 22 0 0.0 8.0 0.00 0.00 0.00 90 1014.8
20260903162022 21 0 0.0 8.0 0.00 0.00 0.00 89 1014.9
20260903161539 21 0 0.0 6.4 0.00 0.00 0.00 91 1014.8
20260903161019 21 0 0.0 6.4 0.00 0.00 0.00 92 1014.9
20260903160520 20 0 0.0 6.4 0.00 0.00 0.00 93 1015.0
20260903160036 20 161 0.0 6.4 0.00 0.00 0.00 92 1015.0
20260903155522 20 134 1.6 4.8 0.00 0.00 0.00 92 1015.0
20260903155019 20 0 0.0 3.2 0.00 0.00 0.00 94 1014.8
20260903154534 20 0 0.0 3.2 0.00 0.00 0.00 92 1015.0
20260903154016 19 0 0.0 3.2 0.00 0.00 0.00 93 1015.0
20260903153520 19 0 0.0 0.0 0.00 0.00 0.00 92 1015.0
20260903153034 19 0 0.0 1.6 0.00 0.00 0.00 93 1015.1
20260903152521 19 0 0.0 1.6 0.00 0.00 0.00 93 1015.2
20260903152022 18 0 0.0 1.6 0.00 0.00 0.00 95 1015.2
20260903151536 18 0 0.0 1.6 0.00 0.00 0.00 94 1015.2
20260903151020 18 0 0.0 4.8 0.00 0.00 0.00 94 1015.3
20260903150520 18 0 0.0 4.8 0.00 0.00 0.00 93 1015.3
20260903150047 18 0 0.0 4.8 0.00 0.00 0.00 92 1015.4
20260903145519 18 0 0.0 9.7 0.00 0.00 0.00 93 1015.4
20260903145019 18 0 0.0 9.7 0.00 0.00 0.00 93 1015.5
20260903144541 18 148 4.8 8.0 0.00 0.00 0.00 92 1015.6
20260903144016 18 0 0.0 0.0 0.00 0.00 0.00 93 1015.5
20260903143521 18 0 0.0 0.0 0.00 0.00 0.00 92 1015.6
20260903143042 18 0 0.0 8.0 0.00 0.00 0.00 91 1015.6
20260903142520 18 0 1.6 8.0 0.00 0.00 0.00 90 1015.5
20260903142020 18 0 0.0 6.4 0.00 0.00 0.00 89 1015.4
20260903141537 18 153 0.0 6.4 0.00 0.00 0.00 88 1015.5
20260903141021 18 0 0.0 6.4 0.00 0.00 0.00 87 1015.5
20260903140521 18 0 0.0 8.0 0.00 0.00 0.00 87 1015.8
20260903140040 18 125 3.2 8.0 0.00 0.00 0.00 87 1015.8
20260903135519 18 0 0.0 4.8 0.00 0.00 0.00 87 1015.7
20260903135019 18 0 0.0 4.8 0.00 0.00 0.00 88 1015.7
20260903134547 18 0 0.0 1.6 0.00 0.00 0.00 88 1015.4
20260903134021 18 0 0.0 0.0 0.00 0.00 0.00 87 1015.5
20260903133518 18 0 0.0 0.0 0.00 0.00 0.00 87 1015.4
20260903133038 18 0 0.0 1.6 0.00 0.00 0.00 87 1015.4
20260903132519 18 0 0.0 1.6 0.00 0.00 0.00 88 1015.2
20260903132020 18 167 0.0 1.6 0.00 0.00 0.00 88 1015.4
20260903131534 18 0 0.0 1.6 0.00 0.00 0.00 88 1015.4
20260903131020 17 0 0.0 1.6 0.00 0.00 0.00 89 1015.5
20260903130523 17 167 0.0 1.6 0.00 0.00 0.00 89 1015.6
20260903130033 17 0 0.0 8.0 0.00 0.00 0.00 89 1015.6
20260903125519 17 0 0.0 8.0 0.00 0.00 0.00 89 1015.6
20260903125016 17 167 1.6 8.0 0.00 0.00 0.00 92 1015.6
20260903124535 17 0 0.0 4.8 0.00 0.00 0.00 91 1015.5
20260903124017 16 0 0.0 6.4 0.00 0.00 0.00 92 1015.3
20260903123522 16 0 0.0 6.4 0.00 0.00 0.00 92 1015.3
20260903123034 16 0 0.0 0.0 0.00 0.00 0.00 91 1015.2
20260903122520 16 0 0.0 1.6 0.00 0.00 0.00 91 1015.3
20260903122020 16 0 0.0 1.6 0.00 0.00 0.00 91 1015.3
20260903121532 16 0 0.0 0.0 0.00 0.00 0.00 90 1015.3
20260903121019 16 0 0.0 4.8 0.00 0.00 0.00 89 1015.3
20260903120519 16 0 0.0 4.8 0.00 0.00 0.00 90 1015.3
20260903120039 16 0 0.0 0.0 0.00 0.00 0.00 89 1015.2
20260903115518 16 0 0.0 0.0 0.00 0.00 0.00 88 1015.2
20260903115018 16 0 0.0 0.0 0.00 0.00 0.00 88 1015.2
20260903114536 16 0 0.0 3.2 0.00 0.00 0.00 87 1015.2
20260903114021 17 0 0.0 4.8 0.00 0.00 0.00 89 1015.2
20260903113520 17 0 0.0 4.8 0.00 0.00 0.00 89 1015.2
20260903113036 17 0 0.0 4.8 0.00 0.00 0.00 89 1015.2
20260903112525 17 0 0.0 1.6 0.00 0.00 0.00 89 1015.2
20260903112020 16 0 0.0 4.8 0.00 0.00 0.00 88 1015.0
20260903111536 16 0 0.0 4.8 0.00 0.00 0.00 91 1015.0
20260903111019 16 155 0.0 4.8 0.00 0.00 0.00 92 1015.0
20260903110522 16 0 0.0 4.8 0.00 0.00 0.00 91 1014.9
20260903110033 16 0 0.0 4.8 0.00 0.00 0.00 90 1014.8
20260903105516 16 0 0.0 3.2 0.00 0.00 0.00 89 1014.9
20260903105019 16 0 0.0 1.6 0.00 0.00 0.00 87 1014.9
20260903104534 16 0 0.0 0.0 0.00 0.00 0.00 87 1014.6
20260903104021 16 0 0.0 0.0 0.00 0.00 0.00 86 1014.5
20260903103520 16 0 0.0 0.0 0.00 0.00 0.00 85 1014.6
20260903103037 16 0 0.0 3.2 0.00 0.00 0.00 84 1014.7
20260903102521 17 0 0.0 3.2 0.00 0.00 0.00 83 1014.7
20260903102020 17 0 0.0 3.2 0.00 0.00 0.00 86 1015.0
20260903101539 17 0 0.0 3.2 0.00 0.00 0.00 85 1015.1
20260903101018 17 0 0.0 4.8 0.00 0.00 0.00 84 1015.1
20260903100518 17 0 0.0 4.8 0.00 0.00 0.00 86 1015.0
20260903100033 17 0 0.0 3.2 0.00 0.00 0.00 86 1015.1
20260903095520 17 0 0.0 3.2 0.00 0.00 0.00 87 1015.1
20260903095016 16 0 0.0 3.2 0.00 0.00 0.00 89 1014.9
20260903094541 16 0 0.0 3.2 0.00 0.00 0.00 88 1014.9
20260903094021 16 0 0.0 3.2 0.00 0.00 0.00 87 1014.9
20260903093521 16 0 0.0 1.6 0.00 0.00 0.00 85 1014.9
20260903093049 16 0 0.0 1.6 0.00 0.00 0.00 85 1014.6
20260903092524 16 0 0.0 1.6 0.00 0.00 0.00 85 1014.6
20260903092021 16 0 0.0 0.0 0.00 0.00 0.00 84 1014.5
20260903091536 16 0 0.0 3.2 0.00 0.00 0.00 84 1014.7
20260903091019 16 0 0.0 3.2 0.00 0.00 0.00 83 1014.6
20260903090518 17 0 0.0 0.0 0.00 0.00 0.00 83 1014.6
20260903090037 17 0 0.0 0.0 0.00 0.00 0.00 83 1014.6
20260903085516 17 0 0.0 8.0 0.00 0.00 0.00 84 1014.6
20260903085016 17 0 0.0 8.0 0.00 0.00 0.00 87 1014.7
20260903084536 16 150 3.2 8.0 0.00 0.00 0.00 91 1014.7
20260903084021 15 0 0.0 0.0 0.00 0.00 0.00 87 1014.8
20260903083521 15 0 0.0 0.0 0.00 0.00 0.00 87 1014.9
20260903083034 15 0 0.0 0.0 0.00 0.00 0.00 87 1014.9
20260903082520 15 0 0.0 0.0 0.00 0.00 0.00 86 1014.7
20260903082020 16 0 0.0 0.0 0.00 0.00 0.00 86 1014.8
20260903081541 16 0 0.0 0.0 0.00 0.00 0.00 86 1014.9
20260903081017 16 0 0.0 0.0 0.00 0.00 0.00 85 1014.9
20260903080520 16 0 0.0 0.0 0.00 0.00 0.00 85 1014.9
20260903080035 16 0 0.0 0.0 0.00 0.00 0.00 85 1015.0
20260903075523 16 0 0.0 0.0 0.00 0.00 0.00 85 1015.0
20260903075019 16 0 0.0 3.2 0.00 0.00 0.00 85 1014.9
20260903074536 16 0 0.0 3.2 0.00 0.00 0.00 85 1015.1
20260903074019 16 0 0.0 0.0 0.00 0.00 0.00 85 1015.0
20260903073517 16 0 0.0 0.0 0.00 0.00 0.00 85 1014.9
20260903073036 16 0 0.0 0.0 0.00 0.00 0.00 84 1014.9
20260903072518 16 0 0.0 0.0 0.00 0.00 0.00 84 1014.8
20260903072019 16 0 0.0 0.0 0.00 0.00 0.00 84 1015.0